Ft Lauderdale, FL

4:57 AM EDT on May 28, 2017 (GMT -0400)
Fort Lauderdale-Hollywood International

Weather History for KFLL - September, 2012

Change the Weather History Date:

Wednesday, September 12, 2012

  Actual Average Record
Temperature  
Mean Temperature 85 °F 83 °F  
Max Temperature 90 °F 89 °F 99 °F (1935)
Min Temperature 80 °F 78 °F 69 °F (1981)
Degree Days  
Heating Degree Days 0 0  
Month to date heating degree days 0 0  
Since 1 July heating degree days 0 0  
Cooling Degree Days 20 18  
Month to date cooling degree days 223 222  
Year to date cooling degree days 3412 3388  
Growing Degree Days 35 (Base 50)    
Moisture  
Dew Point 73 °F    
Average Humidity 71    
Maximum Humidity 85    
Minimum Humidity 56    
Precipitation  
Precipitation T in 0.28 in 3.40 in (1954)
Month to date precipitation 1.04 3.36  
Year to date precipitation 44.37 44.43  
Snow  
Snow 0.00 in - - ()
Month to date snowfall 0.0  
Since 1 July snowfall 0.0  
Since 1 September snowfall 0.0  
Snow Depth 0.00 in    
Sea Level Pressure  
Sea Level Pressure 30.02 in    
Wind  
Wind Speed 16 mph (ENE)    
Max Wind Speed 25 mph    
Max Gust Speed 32 mph    
Visibility 10 miles    
Events Rain    
T = Trace of Precipitation, MM = Missing Value Source: NWS Daily Summary

Daily Weather History Graph

Daily Weather History Graph

Search for Another Location

Airport or City:

Trip Planner

Search our weather history database for the weather conditions in past years. The results will help you decide how hot, cold, wet, or windy it might be!

Date:

Astronomy

Sep. 12, 2012 Rise Set
Actual Time 7:05 AM EDT 7:27 PM EDT
Civil Twilight 6:42 AM EDT 7:50 PM EDT
Nautical Twilight 6:15 AM EDT 8:17 PM EDT
Astronomical Twilight 5:47 AM EDT 8:45 PM EDT
Moon 3:37 AM EDT (9/12) 5:00 PM EDT (9/12)
Length of Visible Light 13h 08m
Length of Day
12h 22m
Waning Crescent, 14% of the Moon is Illuminated
Sep 12
Waning Crescent
Sep 15
New
Sep 22
First Quarter
Sep 29
Full
Oct 8
Last Quarter

Hourly Weather History & Observations

Time (EDT) Temp. Heat Index Dew Point Humidity Pressure Visibility Wind Dir Wind Speed Gust Speed Precip Events Conditions
12:53 AM 82.9 °F 88.0 °F 72.0 °F 69% 30.05 in 10.0 mi East 11.5 mph - N/A   Scattered Clouds
1:53 AM 82.9 °F 88.0 °F 72.0 °F 69% 30.04 in 10.0 mi East 15.0 mph - N/A   Scattered Clouds
2:53 AM 82.9 °F 88.0 °F 72.0 °F 69% 30.02 in 10.0 mi East 15.0 mph - N/A   Scattered Clouds
3:53 AM 82.9 °F 88.0 °F 72.0 °F 69% 30.01 in 10.0 mi East 15.0 mph - N/A   Scattered Clouds
4:53 AM 82.0 °F 86.3 °F 71.1 °F 69% 30.00 in 10.0 mi East 16.1 mph - N/A   Partly Cloudy
5:53 AM 82.0 °F 86.7 °F 72.0 °F 71% 30.01 in 10.0 mi East 13.8 mph - N/A   Partly Cloudy
6:53 AM 82.0 °F 86.3 °F 71.1 °F 69% 30.02 in 10.0 mi ENE 12.7 mph - N/A   Partly Cloudy
7:53 AM 82.9 °F 87.5 °F 71.1 °F 67% 30.03 in 10.0 mi ENE 11.5 mph 21.9 mph N/A   Mostly Cloudy
8:53 AM 84.9 °F 89.4 °F 70.0 °F 61% 30.04 in 10.0 mi ENE 13.8 mph 21.9 mph N/A   Scattered Clouds
9:53 AM 84.9 °F 90.7 °F 72.0 °F 65% 30.05 in 10.0 mi ENE 17.3 mph 20.7 mph N/A   Partly Cloudy
10:53 AM 87.1 °F 92.8 °F 71.1 °F 59% 30.06 in 10.0 mi East 16.1 mph 23.0 mph N/A   Partly Cloudy
11:53 AM 88.0 °F 94.7 °F 72.0 °F 59% 30.06 in 10.0 mi East 16.1 mph - N/A   Partly Cloudy
12:53 PM 88.0 °F 95.6 °F 73.0 °F 61% 30.05 in 10.0 mi East 18.4 mph - N/A   Partly Cloudy
1:53 PM 90.0 °F 96.9 °F 72.0 °F 55% 30.03 in 10.0 mi ENE 16.1 mph 20.7 mph N/A   Partly Cloudy
2:53 PM 88.0 °F 95.6 °F 73.0 °F 61% 30.01 in 10.0 mi ENE 15.0 mph - N/A   Partly Cloudy
3:53 PM 87.1 °F 95.4 °F 73.9 °F 65% 29.99 in 10.0 mi ENE 12.7 mph 24.2 mph N/A   Mostly Cloudy
4:53 PM 84.9 °F 92.1 °F 73.9 °F 69% 29.99 in 10.0 mi ENE 15.0 mph 23.0 mph N/A   Scattered Clouds
5:53 PM 84.9 °F 90.7 °F 72.0 °F 65% 29.99 in 10.0 mi ENE 18.4 mph 25.3 mph N/A   Scattered Clouds
6:53 PM 84.0 °F 89.6 °F 72.0 °F 67% 29.99 in 10.0 mi ENE 11.5 mph 21.9 mph N/A   Scattered Clouds
7:53 PM 82.9 °F 89.4 °F 73.9 °F 74% 29.99 in 10.0 mi ENE 20.7 mph 29.9 mph N/A   Mostly Cloudy
8:53 PM 82.0 °F 88.6 °F 75.0 °F 79% 30.01 in 10.0 mi ENE 13.8 mph 21.9 mph N/A   Scattered Clouds
9:53 PM 80.1 °F 85.4 °F 75.9 °F 87% 30.02 in 10.0 mi NE 16.1 mph - 0.00 in Rain Light Rain
9:55 PM 80.6 °F 86.2 °F 75.2 °F 84% 30.02 in 10.0 mi NE 13.8 mph - 0.00 in   Overcast
10:03 PM 80.6 °F 85.4 °F 73.4 °F 79% 30.02 in 10.0 mi East 16.1 mph 20.7 mph 0.00 in   Overcast
10:53 PM 81.0 °F 86.2 °F 73.9 °F 79% 30.03 in 10.0 mi East 15.0 mph 20.7 mph 0.00 in   Overcast
11:53 PM 82.0 °F 87.9 °F 73.9 °F 76% 30.02 in 10.0 mi East 21.9 mph 27.6 mph N/A   Overcast